BREEZE-KM DEB, 41723

Orbit data source: Space-Track

BREEZE-KM DEB, 41723 is space debris in LEO originally from a launch on Tue, 31 Mar 2015 UTC launched from the Plesetsk Missile And Space Complex (PKMTR). Debris objects in space refer to the collection of defunct objects orbiting the Earth. Examples of debris include non-operational satellites, rocket bodies, and fragments generated from explosions, collisions, or faulty payload assembly.

Loading next visibility...
Identifier
41723, 2015-020L
Orbit
LEO
Last TLE update
8 hours ago
Origin
Manufacturer
Khrunichev
Mission
Spacecraft
Bus & Motor
Unknown
Mass
Unknown
Launch date (UTC)
2015-03-31 (10 years ago)
Launch vehicle
Unknown
Launch site
Plesetsk Missile And Space Complex (PKMTR)
Object type
Payload
Rocket body
Debris
Shape & HBR
Unknown
Radar Cross Section
Small (<0.1 m²)

Expand to show TLE details & history

TLE from 8 hours ago
0 BREEZE-KM DEB
1 41723U 15020L   25182.85884669  .00000125  00000-0  37761-3 0  9992
2 41723  82.4885  27.8642 0221945 341.6319  17.6864 12.92754697454066
Epoch: 2025-07-01T20:36Z
TLE epoch observation values (Epoch: 2025-07-01T20:36:44.354Z)
Latitude
-0.00001°
Longitude
158.53113°
Altitude
1,131.556 km
Speed
7.363 km/s
True Right ascension
01h 51m 27s
True Declination
0° 00' 00"
Sunlit
Object was in daylight at epoch
Visualization orbit readout
Latitude
79.51098°
Longitude
-66.8214°
Altitude
1,377.002 km
Speed
7.143 km/s
Apparent Right ascension
05h 20m 11s
Apparent Declination
35° 54' 31"
Sunlit
Object is in daylight
Visualization observer readout
Local Sidereal Time
16:13:36
Azimuth
346.244° N
Elevation
-12.642°
Doppler factor
1
Orbital elements
Apogee altitude
1,458.033 km
Perigee altitude
1,117.746 km
Semi-major axis
7,666.026 km
Eccentricity
0.02219
Inclination
82.4885°
RAAN
27.8642°
Arg. of periapsis
341.6319°
True anomaly
Unknown
Mean anomaly
17.6864°
Eccentric anomaly
Unknown
Mean motion
3.23361 °/min
Orbital period
111.33 mins
BSTAR
0.00037761
Loading maneuver chart data...
Loading SW <> Apogee altitude chart data...
Loading historical data...
Loading historical data...
Loading historical data...
Loading historical data...
Loading historical data...
Loading historical data...
Loading historical data...

BREEZE-KM DEB Visibility forecast

Observer location: undefined°, undefined°

Span
Click to sort rows by Start time (UTC) header in descending order
Start Az.
Max El. time (UTC)
Max El. Az.
Max El.
End time (UTC)
End Az.
12 mins2025-07-02 13:26:11.085Z144.92° SSE2025-07-02 13:32:11.085Z78.622° E29.543°2025-07-02 13:38:11.085Z25.014° NE
11 mins2025-07-02 15:19:11.085Z226.637° WSW2025-07-02 15:24:11.085Z292.46° WNW32.922°2025-07-02 15:30:11.085Z352.001° N
4 mins2025-07-02 23:16:11.085Z50.275° ENE2025-07-02 23:17:11.085Z57.534° ENE11.842°2025-07-02 23:20:11.085Z78.687° E
15 mins2025-07-03 01:04:11.085Z0.154° NNE2025-07-03 01:11:11.085Z72.145° E41.964°2025-07-03 01:19:11.085Z159.241° S
11 mins2025-07-03 02:58:11.085Z320.539° NNW2025-07-03 03:03:11.085Z275.82° WNW24.584°2025-07-03 03:09:11.085Z227.487° WSW
|